Regional Weather Roundup
Issued by NWS

Home | Current Version | Previous Version | Graphics & Text | Print | Product List | Glossary On
Versions: 1 2 3 4 5 6 7 8 9 10 11 12 13 14 15 16 17 18 19 20 21 22 23 24 25 26 27 28 29 30 31 32 33 34 35 36 37 38 39 40 41 42 43 44 45 46 47 48 49 50
000
ASUS43 KDMX 200901
RWRIA

WEATHER ROUNDUP FOR IOWA
NATIONAL WEATHER SERVICE DES MOINES IA
400 AM CDT SUN AUG 20 2017

NOTE: "FAIR" INDICATES FEW OR NO CLOUDS BELOW 12,000 FEET WITH NO
SIGNIFICANT WEATHER AND/OR OBSTRUCTIONS TO VISIBILITY.

* - THESE STATIONS ARE NOT NWS STATIONS...THUS NOT UNDER NWS
QUALITY CONTROL.  THEY ALSO DO NOT REPORT WEATHER SUCH
AS PRECIPITATION OR FOG.

IAZ001>003-012>014-020>022-031>034-043>046-201000-
   NORTHWEST IOWA

CITY           SKY/WX    TMP DP  RH WIND       PRES   REMARKS
CARROLL *      LGT RAIN  68  66  94 S23G30    29.89F
CHEROKEE *     CLOUDY    70  64  81 SW6       29.84F
DENISON *      DRIZZLE   72  59  64 S21G29    29.84S
LE MARS *      CLOUDY   102 N/A N/A SW3       29.85R
ORANGE CITY *  CLOUDY    72  66  83 SW6       29.87R
SHELDON *      CLOUDY    72  64  78 S12G18    29.85R
SIOUX CITY     CLOUDY    71  64  78 CALM      29.85R
SPENCER        CLOUDY    71  63  75 S5        29.86F
STORM LAKE *   CLOUDY    70  63  78 SW10      29.85S
$$

IAZ055>058-069>071-079>083-090>094-201000-
   SOUTHWEST IOWA

CITY           SKY/WX    TMP DP  RH WIND       PRES   REMARKS
ATLANTIC *     RAIN      68  66  94 CALM      29.98F
AUDUBON *      RAIN      68  64  88 SE5       29.99R
CLARINDA *     CLOUDY    72  72 100 W12G18    30.02R
COUNCIL BLFS * LGT RAIN  68  68 100 SE5       29.94F
CRESTON *      RAIN      70  66  88 NW21G40   29.97R
HARLAN  *      LGT RAIN  68  66  94 SE8       29.98F
LAMONI         CLOUDY    73  65  75 S9        29.90F
RED OAK *      LGT RAIN  70  70 100 W9        29.98F
SHENANDOAH *   LGT RAIN  68  66  94 S6        30.00S
$$

IAZ047>049-059>061-072>074-084-201000-
   CENTRAL IOWA

CITY           SKY/WX    TMP DP  RH WIND       PRES   REMARKS
AMES           CLOUDY    67  67 100 CALM      29.91F
ANKENY *       DRIZZLE   68  66  94 CALM      29.92S
BOONE *        LGT RAIN  68  64  88 SE6       29.91S
CHARITON *     CLOUDY    68  63  83 SE3       29.91F
DES MOINES     CLOUDY    73  61  65 E3        29.91F
GRINNELL*      CLOUDY    67  64  91 SE3       29.96S
KNOXVILLE *    CLOUDY    70  63  78 CALM      29.92S
MARSHALLTOWN     N/A     67  65  93 SE6       29.93R
NEWTON *       CLOUDY    66  64  94 SE5       29.94S
PELLA *        CLOUDY    68  64  88 CALM      29.94S
$$

IAZ004>006-015-016-023>025-035-036-201000-
   NORTH CENTRAL IOWA

CITY           SKY/WX    TMP DP  RH WIND       PRES   REMARKS
ALGONA *       CLOUDY    68  68 100 SE6       29.87F
CLARION *      CLOUDY    68  68 100 S5        29.90F
ESTHERVILLE    CLOUDY    65  65 100 S3        29.85F
FORT DODGE *   CLOUDY    70  63  78 S6        29.88F
MASON CITY     CLOUDY    64  62  93 SE5       29.91F
FOREST CITY *    N/A     64  63  94 SE5       29.89F
WEBSTER CITY * CLOUDY    68  64  88 S12       29.87F
IOWA FALLS *     N/A     67  65  93 SE5       29.93F
$$

IAZ007>011-017>019-026>030-037>042-050>054-066-201000-
   NORTHEAST IOWA

CITY           SKY/WX    TMP DP  RH WIND       PRES   REMARKS
CEDAR RAPIDS   CLOUDY    66  63  90 SE5       29.95R
CHARLES CITY * CLOUDY    64  64 100 SE7       29.94R
CLINTON *      CLOUDY    63  60  90 E3        29.98R
DECORAH *      CLOUDY    64  61  88 S5        29.96R
DUBUQUE        CLOUDY    64  59  83 S8        29.98R
MONTICELLO *   PTCLDY    63  61  94 CALM      29.97R
OELWEIN *      CLOUDY    64  64 100 SE8       29.96S
WATERLOO       CLOUDY    67  62  84 SE10      29.91F
$$

IAZ064-065-067-068-078-201000-
   EAST CENTRAL IOWA

CITY           SKY/WX    TMP DP  RH WIND       PRES   REMARKS
DAVENPORT      PTCLDY    64  60  87 SE5       29.99R
IOWA CITY      CLOUDY    66  62  87 CALM      29.97R
MUSCATINE *    PTCLDY    63  59  88 CALM      29.96R
QUAD CITIES    CLEAR     63  59  87 E5        29.97R
$$

IAZ062-063-075>077-085>089-095>099-201000-
   SOUTHEAST IOWA

CITY           SKY/WX    TMP DP  RH WIND       PRES   REMARKS
BURLINGTON     CLEAR     68  66  93 S3        29.95R
FAIRFIELD *    MOCLDY    68  64  88 SE6       29.94R
FORT MADISON * CLOUDY    70  66  88 S6        29.97R
KEOKUK *       PTCLDY    68  66  94 CALM      29.95R
OSKALOOSA *      N/A     65  64  96 CALM      29.95R
OTTUMWA        LGT RAIN  69  67  93 S8        29.94R
WASHINGTON *   CLOUDY    63  63 100 SE5       29.96R
$$

ABBREVIATIONS USED IN REMARKS
   TC - TEMPERATURES IN CELSIUS
  WCI - WIND CHILL INDEX
   HX - HEAT INDEX
  VSB - VISIBILITY
$$





USA.gov is the U.S. government's official web portal to all federal, state and local government web resources and services.